Zurück zum Katalog

CZ-6A DEB

AktivSSO
NORAD 55008·DEBRIS·🇨🇳 China

Gestartet Nov 11, 2022 von Taiyuan Satellite Launch Center

Loading…

Nächste Überflüge (nächste 24 Stunden)

TLE

AktuellSource: Space-Track

Epoche: Sep 14, 2026, 05:49 UTC

1 55008U 22151UY  26257.24245742  .00000157  00000-0  10938-3 0  9998
2 55008  98.8499 261.4601 0042395  51.6502 308.8467 14.11592382197525

Verfolge CZ-6A DEB in Echtzeit mit AllMySat

Download on the App Store